loading
|

THOR ABLESTAR DEB, 3810

Orbit data source: Space-Track

THOR ABLESTAR DEB, 3810 is space debris in LEO originally from a launch on Fri, 13 Aug 1965 UTC launched from the Air Force Western Test Range (AFWTR). Debris objects in space refer to the collection of defunct objects orbiting the Earth. Examples of debris include non-operational satellites, rocket bodies, and fragments generated from explosions, collisions, or faulty payload assembly.

Loading next visibility...
Loading greatness...
THOR ABLESTAR DEB details
Identifier
3810, 1965-065P
Orbit
LEO
Last TLE update2 days ago
Origin
Flag of USUSN BuWeps (US)
ManufacturerUnknown
Mission statusUnknown
MissionUnknown
Bus & MotorUnknown
MassUnknown
Launch date (UTC)
1965-08-13 (59 years ago)
Launch vehicleUnknown
Launch site
Air Force Western Test Range (AFWTR)
Object type
Payload
Rocket body
Debris
Radar Cross SectionSmall (<0.1 m²)

Expand to show TLE details & history

TLE from 2 days ago
0 THOR ABLESTAR DEB
1 03810U 65065P   24259.91468847  .00001681  00000-0  25524-2 0  9999
2 03810  89.9591 217.3148 0058345 342.4328  87.5628 13.51247024172513
Epoch: 2024-09-15T21:57Z
Definitive object data (Epoch: 2024-09-15T21:57:09.083Z)
Latitude70.73184°
Longitude-107.20786°
Altitude1,078.39 km
Speed7.32 km/s
True Right ascension14h 29m 43s
True Declination70° 37' 45"
Sunlit
Object was in daylight at TLE epoch
Predictive object data (real-time)
Latitude69.90258°
Longitude72.55624°
Altitude1,109.627 km
Speed7.289 km/s
Apparent Right ascension02h 47m 08s
Apparent Declination21° 29' 07"
Sunlit
Object is in daylight
Predictive observer data (real-time)
Local Sidereal Time14:56:48
Azimuth2.559° NNE
Elevation-28.557°
Doppler factor1
Orbital elements
Apogee1,108.147 km
Perigee1,021.296 km
Semi-major axis7,442.859 km
Eccentricity0.0058345
Inclination89.9591°
RAAN217.3148°
Arg. of periapsis342.4328°
True anomaly88.23097°
Mean anomaly87.5628°
Eccentric anomaly87.89687°
Mean motion3.38013 °/min
BSTAR0.0025524
Period106.5 mins
No data available

THOR ABLESTAR DEB Visibility forecast

Observer location: 39.9160978°, -105.1181434

THOR ABLESTAR DEB is not visible in the next 10 days
Span
Click to sort rows by Start time (UTC) header in descending order
Start Az.
Max El. time (UTC)
Max El. Az.
Max El.
End time (UTC)
End Az.